[[{"header":{"parameterUnit":"m.s-1","parameterCategory":1,"la1":30.2991,"la2":30.254,"lo1":-89.0895,"lo2":-89.0444,"dy":0.0017,"dx":0.0017,"nx":28,"ny":28,"refTime":"2024-12-13T03:00:00:Z","depth":0,"parameterNumber":2,"parameterNumberName":"U-component_of_WINDS"},"data":[0,0,0,0,0,0,0,0,0,0,0,0,0,0,0,0,0,0,0,0,0,0,0,0,0,0,0,0,0,0,0,0,0,0,0,0,0,0,0,0,0,0,0,0,0,0,0,0,0,0,0,0,0,0,0,0,0,0,-2.1186,-2.1186,0,-2.1184,-2.1184,-2.1184,-2.1056,-2.1052,-2.1049,-2.1046,-2.1049,-2.1052,-2.1055,0,0,0,0,0,0,0,0,0,0,0,0,0,-2.1081,-2.1084,-2.1186,-2.1186,-2.1186,-2.1184,-2.1184,-2.1184,-2.1056,-2.1052,-2.1048,-2.1044,-2.1048,-2.1052,-2.1055,0,0,0,0,0,0,0,0,0,0,0,0,0,-2.1108,-2.1085,-2.1186,-2.1122,-2.1116,-2.1184,-2.1184,-2.1184,-2.1057,-2.1052,-2.1047,-2.1042,-2.1046,-2.1051,-2.1056,-2.1187,0,0,-2.1071,-2.1073,0,0,0,0,0,0,0,0,-2.1107,-2.1112,-2.1131,-2.1126,-2.112,-2.1115,-2.1148,-2.1185,-2.1058,-2.108,-2.1046,-2.104,-2.1075,-2.1077,-2.1088,-2.1187,-2.1187,-2.1071,-2.1074,-2.1076,-2.1078,0,0,0,0,0,0,0,-2.1105,-2.1111,-2.1185,-2.1132,-2.1125,-2.1094,-2.1092,-2.1155,-2.1106,-2.1077,-2.1068,-2.1069,-2.1071,-2.1084,-2.1087,-2.1187,-2.1071,-2.1075,-2.1078,-2.108,-2.1392,-2.1397,0,0,0,0,0,0,-2.1111,-2.1111,-2.1185,-2.1185,-2.11,-2.11,-2.1098,-2.1122,-2.1105,-2.1097,-2.1074,-2.1063,-2.1078,-2.1082,-2.1087,-2.1239,-2.1076,-2.1081,-2.1083,-2.1387,-2.1393,-2.1399,0,0,0,0,0,0,-2.111,-2.1119,-2.1185,-2.1145,-2.1151,-2.1107,-2.1135,-2.1124,-2.1137,-2.1102,-2.1093,-2.1095,-2.1074,-2.108,-2.1162,-2.1237,-2.1083,-2.1087,-2.1381,-2.1389,-2.1396,-2.1545,0,0,0,0,0,0,-2.1107,-2.1119,-2.1168,-2.1147,-2.1154,-2.1261,-2.1139,-2.1128,-2.1145,-2.1131,-2.112,-2.1113,-2.1071,-2.1156,-2.1167,-2.1241,-2.1091,-2.1374,-2.1384,-2.1394,-2.1533,-2.1557,-2.1577,0,0,0,0,0,-2.1104,-2.1212,-2.1172,-2.1181,-2.1214,-2.1265,-2.1269,-2.1217,-2.1151,-2.1201,-2.1178,-2.1114,-2.1227,-2.1165,-2.1177,-2.1254,-2.1369,-2.1381,-2.1393,-2.1523,-2.1552,-2.1577,0,0,0,0,0,0,-2.1245,-2.1208,-2.1163,-2.1267,-2.127,-2.1243,-2.1304,-2.1249,-2.1272,-2.1259,-2.1194,-2.1192,-2.1285,-2.1277,-2.1209,-2.1379,-2.1286,-2.1301,-2.1381,-2.1408,-2.143,-2.1431,-2.1095,0,0,0,0,0,-2.1288,-2.1331,-2.1297,-2.1392,-2.1395,-2.135,-2.137,-2.1329,-2.133,-2.1331,-2.1314,-2.1319,-2.1355,-2.1381,-2.1413,-2.153,-2.1526,-2.1588,-2.161,-2.1629,-2.1643,-2.1704,-2.1732,-2.1439,-2.1439,-2.1439,0,0,-2.1378,-2.1363,-2.1395,-2.142,-2.1417,-2.1465,-2.1352,-2.1407,-2.1442,-2.134,-2.1416,-2.1404,-2.1405,-2.1505,-2.1549,-2.1502,-2.1722,-2.1644,-2.1659,-2.1664,-2.1719,-2.1747,-2.1772,-2.1447,-2.1446,-2.1444,0,0,-2.1566,-2.1559,-2.1637,-2.1636,-2.1632,-2.16,-2.1619,-2.16,-2.1588,-2.1662,-2.1587,-2.1627,-2.1691,-2.1695,-2.1705,-2.1891,-2.1833,-2.1903,-2.202,-2.208,-2.2103,-2.2123,-2.219,-2.2215,-2.1917,-2.1918,-2.1918,0,-2.1679,-2.1746,-2.1684,-2.1744,-2.1757,-2.1664,-2.1743,-2.1745,-2.1753,-2.1765,-2.1711,-2.1788,-2.1783,-2.1882,-2.1927,-2.1938,-2.1958,-2.1906,-2.2104,-2.2124,-2.2142,-2.2205,-2.2231,-2.1926,-2.1925,-2.1924,-2.1924,0,-2.1885,-2.1933,-2.1996,-2.2004,-2.2023,-2.2093,-2.2042,-2.207,-2.2026,-2.2,-2.2077,-2.2066,-2.2094,-2.2113,-2.2073,-2.2207,-2.2178,-2.2116,-2.2022,-2.218,-2.2238,-2.2262,-2.1939,-2.1936,-2.1933,-2.1931,0,0,-2.2166,-2.2135,-2.216,-2.2162,-2.2149,-2.2186,-2.225,-2.2274,-2.23,-2.2307,-2.236,-2.2415,-2.2356,-2.2368,-2.2326,-2.2379,-2.2527,-2.2309,-2.2308,-2.2351,-2.2675,-2.2723,-2.2752,-2.2487,-2.2492,-2.2495,-2.2675,0,-2.2349,-2.2455,-2.24,-2.2515,-2.2558,-2.2469,-2.2524,-2.2524,-2.2501,-2.2534,-2.2509,-2.2549,-2.2468,-2.2475,-2.2522,-2.2499,-2.2592,-2.2485,-2.2537,-2.254,-2.2542,-2.2782,-2.2834,-2.3005,-2.2697,-2.2701,-2.2704,0,-2.2577,-2.2592,-2.271,-2.2688,-2.2704,-2.2755,-2.2772,-2.2805,-2.2802,-2.2781,-2.2793,-2.2738,-2.28,-2.2705,-2.279,-2.2719,-2.2736,-2.2728,-2.2733,-2.2738,-2.2633,-2.2795,-2.3058,-2.3084,-2.2739,-2.2736,-2.2734,0,-2.2771,-2.282,-2.2897,-2.2901,-2.2877,-2.2915,-2.2907,-2.2898,-2.2916,-2.2931,-2.2942,-2.2965,-2.2978,-2.2997,-2.295,-2.2885,-2.3042,-2.2943,-2.3028,-2.3029,-2.3067,-2.3065,-2.3338,-2.3076,-2.3075,-2.3075,-2.3074,0,-2.2981,-2.3058,-2.2983,-2.3031,-2.3113,-2.3049,-2.3132,-2.3115,-2.3108,-2.3151,-2.3075,-2.3117,-2.3051,-2.3087,-2.3051,-2.3127,-2.3133,-2.3119,-2.3109,-2.3127,-2.3129,-2.3139,-2.3127,-2.3082,-2.308,-2.3079,-2.3078,0,-2.3213,-2.3166,-2.3244,-2.3213,-2.3207,-2.327,-2.3244,-2.3287,-2.3257,-2.3313,-2.3322,-2.3277,-2.3315,-2.3268,-2.3303,-2.3278,-2.3382,-2.3353,-2.3383,-2.3375,-2.3463,-2.3456,-2.3753,-2.3788,-2.3503,-2.3506,-2.3508,0,-2.3352,-2.3408,-2.3382,-2.3404,-2.34,-2.3438,-2.3454,-2.3392,-2.3413,-2.3411,-2.3455,-2.3486,-2.3508,-2.3573,-2.3544,-2.357,-2.3542,-2.3644,-2.3546,-2.3562,-2.3545,-2.3543,-2.3548,-2.3665,-2.3669,-2.3672,-2.3674,0,-2.3603,-2.3576,-2.3602,-2.3619,-2.3641,-2.3652,-2.3658,-2.3681,-2.3616,-2.3643,-2.3679,-2.3696,-2.373,-2.3762,-2.378,-2.3772,-2.3714,-2.3704,-2.3725,-2.3746,-2.3761,-2.3754,-2.3439,-2.3699,-2.3696,-2.3694,-2.3693,-2.3692,-2.3793,-2.3838,-2.3826,-2.3857,-2.3854,-2.3861,-2.3899,-2.3873,-2.3902,-2.3923,-2.3884,-2.3931,-2.3925,-2.3941,-2.3941,-2.3977,-2.3933,-2.3964,-2.3972,-2.3981,-2.3994,-2.3753,-2.398,-2.3979,-2.3978,-2.3977,-2.3977,0,-2.404,-2.4027,-2.4056,-2.4065,-2.409,-2.4028,-2.4031,-2.4056,-2.4097,-2.4095,-2.4117,-2.4159,-2.4189,-2.4161,-2.4186,-2.422,-2.4194,-2.4229,-2.4227,-2.4226,-2.4031,-2.4011,-2.425,-2.425,-2.425,-2.425,-2.425,-2.425,-2.4172,-2.4245,-2.4217,-2.4287,-2.4273,-2.4317,-2.4324,-2.4329,-2.4327,-2.4377,-2.44,-2.4381,-2.4368,-2.4391,-2.4416,-2.4407,-2.442,-2.4466,-2.4447,-2.4267,-2.424,-2.4214,-2.4195,-2.4469,-2.4469,-2.4639,-2.464,-2.4642]},{"header":{"parameterUnit":"m.s-1","parameterCategory":1,"la1":30.2991,"la2":30.254,"lo1":-89.0895,"lo2":-89.0444,"dy":0.0017,"dx":0.0017,"nx":28,"ny":28,"refTime":"2024-12-13T03:00:00:Z","depth":0,"parameterNumber":3,"parameterNumberName":"V-component_of_WINDS"},"data":[0,0,0,0,0,0,0,0,0,0,0,0,0,0,0,0,0,0,0,0,0,0,0,0,0,0,0,0,0,0,0,0,0,0,0,0,0,0,0,0,0,0,0,0,0,0,0,0,0,0,0,0,0,0,0,0,0,0,-2.1516,-2.1517,0,-2.1619,-2.162,-2.1622,-2.1658,-2.1658,-2.1658,-2.1657,-2.1761,-2.1764,-2.1767,0,0,0,0,0,0,0,0,0,0,0,0,0,-2.1347,-2.135,-2.1516,-2.1517,-2.1518,-2.1619,-2.162,-2.1622,-2.1658,-2.1658,-2.1657,-2.1657,-2.176,-2.1763,-2.1767,0,0,0,0,0,0,0,0,0,0,0,0,0,-2.1432,-2.1351,-2.1516,-2.1549,-2.1553,-2.1619,-2.1621,-2.1622,-2.1658,-2.1658,-2.1657,-2.1657,-2.1758,-2.1763,-2.1767,-2.1807,0,0,-2.1782,-2.1784,0,0,0,0,0,0,0,0,-2.1428,-2.1439,-2.1543,-2.1547,-2.1551,-2.1625,-2.1599,-2.1684,-2.1659,-2.1618,-2.1657,-2.1657,-2.1716,-2.1724,-2.1744,-2.1812,-2.1816,-2.1782,-2.1785,-2.1787,-2.1788,0,0,0,0,0,0,0,-2.1422,-2.1434,-2.1557,-2.1544,-2.1549,-2.1558,-2.1569,-2.1615,-2.1669,-2.1622,-2.1625,-2.1637,-2.1718,-2.174,-2.1747,-2.1818,-2.1782,-2.1786,-2.1789,-2.1791,-2.1923,-2.1923,0,0,0,0,0,0,-2.1411,-2.1429,-2.1553,-2.156,-2.1487,-2.1561,-2.1574,-2.1602,-2.1668,-2.1678,-2.1637,-2.1638,-2.1732,-2.1742,-2.1751,-2.1801,-2.1787,-2.1791,-2.1794,-2.1922,-2.1923,-2.1924,0,0,0,0,0,0,-2.1407,-2.1421,-2.1549,-2.1495,-2.1512,-2.1565,-2.1596,-2.1604,-2.1626,-2.168,-2.1689,-2.165,-2.1732,-2.1744,-2.1793,-2.1805,-2.1793,-2.1797,-2.1921,-2.1922,-2.1923,-2.1903,0,0,0,0,0,0,-2.1402,-2.142,-2.1436,-2.1495,-2.1515,-2.159,-2.1597,-2.1607,-2.1635,-2.1637,-2.1694,-2.1703,-2.1733,-2.1786,-2.1798,-2.1812,-2.1801,-2.192,-2.1922,-2.1923,-2.1902,-2.1903,-2.1903,0,0,0,0,0,-2.1396,-2.1426,-2.1437,-2.1451,-2.1537,-2.1591,-2.1602,-2.1636,-2.1635,-2.1652,-2.1686,-2.1701,-2.1802,-2.179,-2.1804,-2.182,-2.1919,-2.1921,-2.1923,-2.1902,-2.1903,-2.1903,0,0,0,0,0,0,-2.1365,-2.1434,-2.1447,-2.1497,-2.1538,-2.1597,-2.1619,-2.1635,-2.1677,-2.1677,-2.1717,-2.1729,-2.1774,-2.1802,-2.1788,-2.1861,-2.1862,-2.1866,-2.1842,-2.1843,-2.1843,-2.1835,-2.1805,0,0,0,0,0,-2.1365,-2.1404,-2.1461,-2.15,-2.152,-2.1566,-2.1591,-2.1613,-2.1657,-2.1674,-2.1712,-2.1753,-2.1794,-2.182,-2.186,-2.1907,-2.1919,-2.1924,-2.1925,-2.1925,-2.1928,-2.1954,-2.1956,-2.1929,-2.1929,-2.1929,0,0,-2.1363,-2.1406,-2.1428,-2.1495,-2.1529,-2.1568,-2.158,-2.1621,-2.1649,-2.168,-2.1728,-2.1757,-2.1806,-2.1853,-2.1876,-2.1877,-2.1938,-2.1927,-2.1926,-2.193,-2.1956,-2.1958,-2.196,-2.193,-2.193,-2.193,0,0,-2.1381,-2.1417,-2.1453,-2.1487,-2.1539,-2.157,-2.1578,-2.1635,-2.1655,-2.1705,-2.1728,-2.1763,-2.1833,-2.1866,-2.1892,-2.1922,-2.1937,-2.1934,-2.1936,-2.196,-2.1963,-2.1965,-2.1975,-2.1978,-2.1937,-2.1937,-2.1937,0,-2.1372,-2.1432,-2.1469,-2.1509,-2.1537,-2.1568,-2.1604,-2.1635,-2.1697,-2.1716,-2.1717,-2.1805,-2.184,-2.1895,-2.1902,-2.1923,-2.1933,-2.1927,-2.1959,-2.1962,-2.1964,-2.1974,-2.1978,-2.1936,-2.1936,-2.1936,-2.1936,0,-2.1419,-2.146,-2.1483,-2.1543,-2.1574,-2.1612,-2.1654,-2.168,-2.17,-2.173,-2.1779,-2.1822,-2.1872,-2.1887,-2.1906,-2.1945,-2.1944,-2.1952,-2.1953,-2.1966,-2.1976,-2.198,-2.1935,-2.1935,-2.1935,-2.1935,0,0,-2.142,-2.15,-2.1508,-2.1535,-2.1595,-2.1627,-2.1665,-2.1715,-2.1737,-2.1778,-2.1811,-2.187,-2.1877,-2.1907,-2.193,-2.1952,-2.1972,-2.1958,-2.1959,-2.1958,-2.2016,-2.201,-2.2014,-2.1983,-2.1984,-2.1985,-2.2012,0,-2.1444,-2.1516,-2.155,-2.1605,-2.1644,-2.1673,-2.1706,-2.1746,-2.1775,-2.1811,-2.1842,-2.1883,-2.189,-2.1908,-2.1931,-2.1965,-2.1984,-2.1964,-2.2013,-2.2014,-2.2,-2.2019,-2.2012,-2.2036,-2.2016,-2.2017,-2.2018,0,-2.1482,-2.1525,-2.1584,-2.1639,-2.1657,-2.1686,-2.1734,-2.1768,-2.1813,-2.1833,-2.1866,-2.1889,-2.193,-2.1928,-2.1985,-2.197,-2.1992,-2.2012,-2.2014,-2.2019,-2.2016,-2.2024,-2.2044,-2.2048,-2.2024,-2.2024,-2.2023,0,-2.1476,-2.1548,-2.1593,-2.1616,-2.1681,-2.1701,-2.1729,-2.1774,-2.1801,-2.1842,-2.186,-2.1906,-2.193,-2.1965,-2.1999,-2.1995,-2.2052,-2.2054,-2.2068,-2.2067,-2.2078,-2.2077,-2.2102,-2.2094,-2.2094,-2.2094,-2.2094,0,-2.1499,-2.1534,-2.1591,-2.1618,-2.1658,-2.1697,-2.1735,-2.1765,-2.1805,-2.1838,-2.1866,-2.1897,-2.1941,-2.1976,-2.2004,-2.2046,-2.2057,-2.2073,-2.208,-2.207,-2.2068,-2.2085,-2.2084,-2.2095,-2.2094,-2.2094,-2.2094,0,-2.1499,-2.1538,-2.1589,-2.1647,-2.1662,-2.1689,-2.1738,-2.1765,-2.1796,-2.1837,-2.1849,-2.1896,-2.194,-2.1978,-2.2035,-2.2053,-2.2097,-2.2105,-2.2081,-2.2085,-2.2097,-2.2095,-2.2133,-2.214,-2.2127,-2.2128,-2.2128,0,-2.1511,-2.1539,-2.1599,-2.1624,-2.1652,-2.1691,-2.1719,-2.1758,-2.1786,-2.184,-2.1861,-2.1906,-2.1945,-2.2013,-2.2052,-2.2096,-2.2105,-2.2115,-2.2112,-2.2101,-2.2105,-2.2102,-2.2105,-2.2115,-2.2115,-2.2115,-2.2115,0,-2.1528,-2.1546,-2.1586,-2.1632,-2.1665,-2.1704,-2.1743,-2.1761,-2.1808,-2.1838,-2.1883,-2.1913,-2.1972,-2.2016,-2.2065,-2.2093,-2.2111,-2.2116,-2.2122,-2.2112,-2.2097,-2.2104,-2.2081,-2.2115,-2.2115,-2.2115,-2.2115,-2.2115,-2.1533,-2.1559,-2.1606,-2.165,-2.1683,-2.1719,-2.1748,-2.1782,-2.1821,-2.1872,-2.1893,-2.1938,-2.1983,-2.2049,-2.2077,-2.2113,-2.2116,-2.2125,-2.2127,-2.2128,-2.2126,-2.2092,-2.2122,-2.2122,-2.2122,-2.2123,-2.2123,0,-2.1551,-2.1583,-2.1622,-2.1677,-2.1711,-2.1726,-2.177,-2.1797,-2.1838,-2.1878,-2.1915,-2.1967,-2.2011,-2.2053,-2.2099,-2.2119,-2.2129,-2.213,-2.2128,-2.2134,-2.2121,-2.2111,-2.2121,-2.2121,-2.2121,-2.2121,-2.2121,-2.2121,-2.1564,-2.1609,-2.1632,-2.1694,-2.1725,-2.1771,-2.1795,-2.1828,-2.186,-2.1916,-2.1953,-2.1981,-2.2022,-2.2071,-2.2111,-2.2122,-2.2137,-2.2136,-2.2149,-2.2136,-2.2135,-2.2135,-2.2126,-2.2139,-2.2139,-2.216,-2.216,-2.216]}]]